Weather History for MZBZ - June, 2013

Change the Weather History Date:

Tuesday, June 25, 2013

  Actual Average Record
Temperature  
Mean Temperature 82 °F -  
Max Temperature 87 °F 88 °F 91 °F (2012)
Min Temperature 77 °F 76 °F 71 °F (2006)
Cooling Degree Days 17    
Growing Degree Days 32 (Base 50)    
Moisture  
Dew Point 76 °F    
Average Humidity 80    
Maximum Humidity 94    
Minimum Humidity 67    
Precipitation  
Precipitation 0.01 in 0.32 in - ()
Sea Level Pressure  
Sea Level Pressure 29.98 in    
Wind  
Wind Speed 6 mph ()    
Max Wind Speed 14 mph    
Max Gust Speed -    
Visibility 7.9 miles    
Events Thunderstorm    
Averages and records for this station are not official NWS values.
T = Trace of Precipitation, MM = Missing Value Source: Averaged Metar Reports

Daily Weather History Graph

Daily Weather History Graph

Search for Another Location

Airport or City:

Trip Planner

Search our weather history database for the weather conditions in past years. The results will help you decide how hot, cold, wet, or windy it might be!

Date:

Astronomy

Jun. 25, 2013 Rise Set
Actual Time 5:20 AM CST 6:31 PM CST
Civil Twilight 4:56 AM CST 6:55 PM CST
Nautical Twilight 4:28 AM CST 7:23 PM CST
Astronomical Twilight 3:58 AM CST 7:53 PM CST
Moon 8:44 PM CST (6/25) 7:38 AM CST (6/25)
Length of Visible Light 13h 58m
Length of Day
13h 10m
Waning Gibbous, 92% of the Moon is Illuminated
Jun 25
Waning Gibbous
Jun 29
Last Quarter
Jul 8
New
Jul 15
First Quarter
Jul 22
Full

Hourly Weather History & Observations

Time (CST) Temp. Heat Index Dew Point Humidity Pressure Visibility Wind Dir Wind Speed Gust Speed Precip Events Conditions
12:00 AM 80 °F - 77 °F 89% 30.01 in 12 mi East 6.9 mph - -   Scattered Clouds
3:00 AM 77 °F - 76 °F 94% 29.98 in 12 mi East 2.3 mph - -   Scattered Clouds
5:00 AM 77.0 °F - 75.2 °F 94% 29.98 in 6.2 mi East 3.5 mph - N/A Thunderstorm Thunderstorm
6:00 AM 78.8 °F - 77.0 °F 94% 29.98 in 6.2 mi WNW 3.5 mph - N/A   Mostly Cloudy
7:00 AM 80.6 °F 88.1 °F 78.8 °F 94% 30.01 in 6.2 mi ESE 2.3 mph - N/A   Mostly Cloudy
8:00 AM 82.4 °F 90.9 °F 77.0 °F 84% 30.01 in 6.2 mi ENE 5.8 mph - N/A Thunderstorm Thunderstorm
9:00 AM 83 °F - 77 °F 77% 30.04 in 12 mi East 6.9 mph - -   Mostly Cloudy
9:00 AM 82.4 °F 90.9 °F 77.0 °F 84% 30.03 in 6.2 mi East 6.9 mph - N/A   Mostly Cloudy
10:00 AM 82.4 °F 90.9 °F 77.0 °F 84% 30.04 in 6.2 mi ENE 13.8 mph - N/A   Mostly Cloudy
11:00 AM 80.6 °F 86.2 °F 75.2 °F 84% 30.02 in 6.2 mi ENE 8.1 mph - N/A   Mostly Cloudy
12:00 PM 85 °F - 77 °F 71% 30.01 in 12 mi East 5.8 mph - -  
12:00 PM 84.2 °F 94.1 °F 77.0 °F 79% 30.00 in 6.2 mi East 5.8 mph - N/A   Mostly Cloudy
1:00 PM 86.0 °F 96.9 °F 77.0 °F 74% 29.99 in 6.2 mi ENE 9.2 mph - N/A   Mostly Cloudy
2:00 PM 86.0 °F 95.1 °F 75.2 °F 70% 29.96 in 6.2 mi ENE 8.1 mph - N/A   Mostly Cloudy
3:00 PM 86 °F - 76 °F 67% 29.95 in 12 mi ENE 10.4 mph - -   Scattered Clouds
3:00 PM 86.0 °F 95.1 °F 75.2 °F 70% 29.95 in 6.2 mi ENE 10.4 mph - N/A   Scattered Clouds
4:00 PM 86.0 °F 95.1 °F 75.2 °F 70% 29.94 in 6.2 mi ENE 10.4 mph - N/A   Scattered Clouds
5:00 PM 86.0 °F 95.1 °F 75.2 °F 70% 29.93 in 6.2 mi East 8.1 mph - N/A   Scattered Clouds
6:00 PM 84 °F - 75 °F 68% 29.94 in 12 mi East 6.9 mph - -   Partly Cloudy
6:00 PM 84.2 °F 92.3 °F 75.2 °F 74% 29.94 in 6.2 mi East 6.9 mph - N/A   Scattered Clouds
7:00 PM 82.4 °F 89.5 °F 75.2 °F 79% 29.95 in 6.2 mi East 6.9 mph - N/A   Mostly Cloudy
7:25 PM 82.4 °F 89.5 °F 75.2 °F 79% 29.96 in 6.2 mi East 6.9 mph - N/A Thunderstorm Thunderstorm
8:00 PM 82.4 °F 90.9 °F 77.0 °F 84% 29.97 in 6.2 mi East 6.9 mph - N/A   Scattered Clouds
9:00 PM 82 °F - 77 °F 80% 29.99 in 12 mi East 5.8 mph - - Thunderstorm Thunderstorm